GLO9113 SBFL-SBGL

Flight info

Callsign GLO9113
Flight time 1h 3m
Altitude 37000
Route EGDED UN857 AKNUB
Aircraft B737/M-SDFGIKLORWXY/LB1

Departure

Time 2026-05-07 00:16
Airport Hercílio Luz International Airport (SBFL)

Arrival

Time 2026-05-07 01:20
Airport Rio Galeão – Tom Jobim International Airport (SBGL)
Time Latitude Longitude Altitude Speed Heading
2026-05-07 00:03 -27.67301 -48.54505 28 ft 0 kts 211°
2026-05-07 00:06 -27.67288 -48.54496 28 ft 3 kts 198°
2026-05-07 00:06 -27.67267 -48.54493 28 ft 3 kts 160°
2026-05-07 00:07 -27.67250 -48.54507 28 ft 2 kts 121°
2026-05-07 00:07 -27.67247 -48.54512 28 ft 0 kts 121°
2026-05-07 00:11 -27.67261 -48.54485 28 ft 8 kts 121°
2026-05-07 00:11 -27.67296 -48.54410 28 ft 13 kts 95°
2026-05-07 00:11 -27.67240 -48.54343 28 ft 10 kts 31°
2026-05-07 00:12 -27.67221 -48.54275 27 ft 10 kts 111°
2026-05-07 00:12 -27.67262 -48.54196 27 ft 13 kts 121°
2026-05-07 00:12 -27.67317 -48.54095 27 ft 17 kts 121°
2026-05-07 00:12 -27.67384 -48.53970 28 ft 21 kts 121°
2026-05-07 00:13 -27.67465 -48.53821 26 ft 24 kts 121°
2026-05-07 00:13 -27.67550 -48.53663 29 ft 23 kts 121°
2026-05-07 00:13 -27.67632 -48.53511 26 ft 22 kts 121°
2026-05-07 00:13 -27.67712 -48.53364 27 ft 22 kts 121°
2026-05-07 00:14 -27.67788 -48.53222 25 ft 21 kts 121°
2026-05-07 00:14 -27.67795 -48.53127 26 ft 10 kts 45°
2026-05-07 00:14 -27.67773 -48.53110 27 ft 0 kts 32°
2026-05-07 00:15 -27.67771 -48.53109 27 ft 2 kts 32°
2026-05-07 00:15 -27.67740 -48.53087 25 ft 8 kts 32°
2026-05-07 00:15 -27.67677 -48.53083 30 ft 10 kts 328°
2026-05-07 00:16 -27.67611 -48.53193 27 ft 40 kts 301°
2026-05-07 00:16 -27.67331 -48.53712 22 ft 112 kts 301°
2026-05-07 00:16 -27.66824 -48.54650 51 ft 164 kts 301°
2026-05-07 00:16 -27.66226 -48.55766 758 ft 160 kts 302°
2026-05-07 00:17 -27.65641 -48.56863 1421 ft 168 kts 303°
2026-05-07 00:17 -27.65007 -48.58053 1909 ft 190 kts 303°
2026-05-07 00:17 -27.64250 -48.59408 2164 ft 217 kts 314°
2026-05-07 00:17 -27.62885 -48.60175 2548 ft 230 kts 357°
2026-05-07 00:18 -27.61347 -48.59697 3160 ft 241 kts 31°
2026-05-07 00:18 -27.59958 -48.58614 3967 ft 246 kts 33°
2026-05-07 00:18 -27.58549 -48.57478 4733 ft 252 kts 33°
2026-05-07 00:18 -27.57105 -48.56323 5476 ft 257 kts 33°
2026-05-07 00:19 -27.55629 -48.55160 5869 ft 261 kts 33°
2026-05-07 00:19 -27.54120 -48.53988 5986 ft 264 kts 32°
2026-05-07 00:19 -27.52603 -48.52822 5999 ft 264 kts 32°
2026-05-07 00:19 -27.51082 -48.51657 6003 ft 263 kts 32°
2026-05-07 00:20 -27.49555 -48.50491 6213 ft 268 kts 32°
2026-05-07 00:20 -27.48092 -48.49205 6990 ft 274 kts 47°
2026-05-07 00:20 -27.47030 -48.47375 7732 ft 284 kts 58°
2026-05-07 00:20 -27.46050 -48.45405 8593 ft 289 kts 59°
2026-05-07 00:21 -27.45074 -48.43418 9553 ft 292 kts 59°
2026-05-07 00:21 -27.44081 -48.41402 10436 ft 298 kts 59°
2026-05-07 00:21 -27.43024 -48.39279 10785 ft 322 kts 59°
2026-05-07 00:21 -27.41916 -48.37061 11400 ft 334 kts 59°
2026-05-07 00:22 -27.40761 -48.34760 12204 ft 339 kts 59°
2026-05-07 00:22 -27.39593 -48.32437 13052 ft 343 kts 59°
2026-05-07 00:22 -27.38404 -48.30076 13851 ft 350 kts 59°
2026-05-07 00:22 -27.37191 -48.27672 14568 ft 355 kts 59°
2026-05-07 00:23 -27.35960 -48.25234 15328 ft 360 kts 59°
2026-05-07 00:23 -27.34716 -48.22774 16091 ft 365 kts 59°
2026-05-07 00:23 -27.33464 -48.20298 16838 ft 370 kts 59°
2026-05-07 00:23 -27.32186 -48.17766 17621 ft 374 kts 60°
2026-05-07 00:24 -27.30892 -48.15201 18381 ft 379 kts 60°
2026-05-07 00:24 -27.29578 -48.12598 19036 ft 384 kts 60°
2026-05-07 00:24 -27.28244 -48.09957 19677 ft 390 kts 60°
2026-05-07 00:24 -27.26913 -48.07324 20315 ft 395 kts 60°
2026-05-07 00:25 -27.25545 -48.04616 20971 ft 401 kts 60°
2026-05-07 00:25 -27.24158 -48.01877 21616 ft 406 kts 59°
2026-05-07 00:25 -27.22746 -47.99088 22254 ft 411 kts 60°
2026-05-07 00:25 -27.21322 -47.96276 22873 ft 417 kts 59°
2026-05-07 00:26 -27.19876 -47.93423 23479 ft 422 kts 59°
2026-05-07 00:26 -27.18411 -47.90537 24021 ft 428 kts 59°
2026-05-07 00:26 -27.16947 -47.87651 24521 ft 432 kts 59°
2026-05-07 00:26 -27.15447 -47.84698 25035 ft 437 kts 59°
2026-05-07 00:27 -27.13934 -47.81719 25562 ft 441 kts 59°
2026-05-07 00:27 -27.12401 -47.78704 26070 ft 446 kts 60°
2026-05-07 00:27 -27.10850 -47.75658 26550 ft 451 kts 60°
2026-05-07 00:27 -27.09276 -47.72577 27028 ft 456 kts 60°
2026-05-07 00:28 -27.07701 -47.69515 27506 ft 460 kts 60°
2026-05-07 00:28 -27.06092 -47.66389 27975 ft 465 kts 60°
2026-05-07 00:28 -27.04465 -47.63232 28433 ft 470 kts 60°
2026-05-07 00:28 -27.02820 -47.60041 28883 ft 474 kts 60°
2026-05-07 00:29 -27.01163 -47.56825 29322 ft 479 kts 60°
2026-05-07 00:29 -26.99487 -47.53575 29752 ft 483 kts 60°
2026-05-07 00:30 -26.94360 -47.43642 30911 ft 495 kts 60°
2026-05-07 00:30 -26.92651 -47.40334 31267 ft 498 kts 60°
2026-05-07 00:30 -26.90909 -47.36966 31615 ft 502 kts 61°
2026-05-07 00:30 -26.89143 -47.33566 31944 ft 505 kts 60°
2026-05-07 00:31 -26.87065 -47.30371 32283 ft 508 kts 48°
2026-05-07 00:31 -26.84651 -47.27490 32764 ft 507 kts 45°
2026-05-07 00:31 -26.82160 -47.24694 33223 ft 506 kts 45°
2026-05-07 00:31 -26.79674 -47.21895 33604 ft 508 kts 45°
2026-05-07 00:32 -26.77239 -47.19080 33939 ft 510 kts 46°
2026-05-07 00:32 -26.74804 -47.16199 34296 ft 510 kts 47°
2026-05-07 00:32 -26.72372 -47.13300 34681 ft 509 kts 47°
2026-05-07 00:32 -26.69962 -47.10414 35050 ft 508 kts 47°
2026-05-07 00:33 -26.67549 -47.07520 35393 ft 507 kts 47°
2026-05-07 00:33 -26.65141 -47.04633 35721 ft 507 kts 47°
2026-05-07 00:33 -26.62732 -47.01747 36037 ft 507 kts 47°
2026-05-07 00:33 -26.60321 -46.98866 36374 ft 507 kts 47°
2026-05-07 00:34 -26.57909 -46.96003 36749 ft 505 kts 47°
2026-05-07 00:34 -26.55523 -46.93199 37086 ft 504 kts 47°
2026-05-07 00:34 -26.50637 -46.87482 37117 ft 511 kts 47°
2026-05-07 00:35 -26.45746 -46.81754 37096 ft 504 kts 47°
2026-05-07 00:35 -26.40876 -46.76047 37127 ft 513 kts 47°
2026-05-07 00:36 -26.35914 -46.70241 37131 ft 525 kts 47°
2026-05-07 00:36 -26.30851 -46.64328 37105 ft 525 kts 47°
2026-05-07 00:37 -26.25809 -46.58444 37109 ft 524 kts 47°
2026-05-07 00:37 -26.20805 -46.52612 37113 ft 523 kts 47°
2026-05-07 00:38 -26.15775 -46.46755 37114 ft 522 kts 47°
2026-05-07 00:38 -26.10754 -46.40917 37116 ft 521 kts 47°
2026-05-07 00:39 -26.05774 -46.35135 37117 ft 520 kts 47°
2026-05-07 00:39 -26.00762 -46.29323 37117 ft 520 kts 47°
2026-05-07 00:40 -25.95757 -46.23527 37120 ft 519 kts 47°
2026-05-07 00:40 -25.90772 -46.17761 37121 ft 519 kts 47°
2026-05-07 00:41 -25.85764 -46.11976 37116 ft 520 kts 47°
2026-05-07 00:41 -25.80741 -46.06182 37119 ft 520 kts 47°
2026-05-07 00:42 -25.75709 -46.00384 37121 ft 521 kts 47°
2026-05-07 00:42 -25.70712 -45.94633 37125 ft 521 kts 47°
2026-05-07 00:43 -25.65661 -45.88827 37122 ft 522 kts 47°
2026-05-07 00:43 -25.62283 -45.84953 37124 ft 522 kts 47°
2026-05-07 00:44 -25.60208 -45.82576 37125 ft 522 kts 47°
2026-05-07 00:44 -25.55187 -45.76828 37126 ft 522 kts 47°
2026-05-07 00:45 -25.50123 -45.71035 37119 ft 522 kts 48°
2026-05-07 00:45 -25.45066 -45.65256 37120 ft 522 kts 48°
2026-05-07 00:46 -25.41715 -45.61431 37125 ft 522 kts 48°
2026-05-07 00:46 -25.39439 -45.58835 37126 ft 522 kts 47°
2026-05-07 00:47 -25.34407 -45.53101 37126 ft 521 kts 48°
2026-05-07 00:47 -25.29352 -45.47348 37123 ft 521 kts 48°
2026-05-07 00:48 -25.24292 -45.41596 37128 ft 521 kts 48°
2026-05-07 00:48 -25.19838 -45.36540 37136 ft 521 kts 48°
2026-05-07 00:49 -25.14787 -45.30812 37125 ft 520 kts 48°
2026-05-07 00:49 -25.09728 -45.25082 37126 ft 520 kts 48°
2026-05-07 00:50 -25.05525 -45.20329 37127 ft 520 kts 48°
2026-05-07 00:50 -25.00462 -45.14607 37132 ft 520 kts 48°
2026-05-07 00:51 -24.95437 -45.08936 37129 ft 519 kts 48°
2026-05-07 00:51 -24.90380 -45.03237 37131 ft 519 kts 48°
2026-05-07 00:52 -24.85320 -44.97540 37130 ft 519 kts 48°
2026-05-07 00:52 -24.80294 -44.91889 37128 ft 519 kts 48°
2026-05-07 00:53 -24.75228 -44.86201 37132 ft 519 kts 48°
2026-05-07 00:53 -24.70170 -44.80528 37144 ft 519 kts 48°
2026-05-07 00:54 -24.65109 -44.74858 37125 ft 519 kts 48°
2026-05-07 00:54 -24.60042 -44.69189 37130 ft 519 kts 48°
2026-05-07 00:55 -24.55001 -44.63554 37131 ft 519 kts 48°
2026-05-07 00:55 -24.49902 -44.57918 37130 ft 520 kts 43°
2026-05-07 00:56 -24.46966 -44.55669 37122 ft 521 kts 27°
2026-05-07 00:56 -24.43723 -44.53867 37149 ft 521 kts 26°
2026-05-07 00:56 -24.37192 -44.50380 37136 ft 522 kts 26°
2026-05-07 00:57 -24.30716 -44.46848 37121 ft 522 kts 26°
2026-05-07 00:57 -24.27465 -44.45041 36865 ft 527 kts 27°
2026-05-07 00:57 -24.24186 -44.43206 36239 ft 529 kts 27°
2026-05-07 00:58 -24.20906 -44.41368 35577 ft 527 kts 27°
2026-05-07 00:58 -24.17656 -44.39499 35013 ft 524 kts 29°
2026-05-07 00:58 -24.14502 -44.37579 34813 ft 511 kts 30°
2026-05-07 00:58 -24.11442 -44.35672 34552 ft 502 kts 30°
2026-05-07 00:59 -24.05366 -44.31875 33914 ft 512 kts 30°
2026-05-07 00:59 -24.02252 -44.29948 33054 ft 515 kts 30°
2026-05-07 00:59 -23.99131 -44.28030 32251 ft 514 kts 30°
2026-05-07 01:00 -23.96010 -44.26120 31394 ft 514 kts 29°
2026-05-07 01:00 -23.92895 -44.24218 30527 ft 514 kts 29°
2026-05-07 01:00 -23.89788 -44.22323 29861 ft 507 kts 29°
2026-05-07 01:00 -23.86718 -44.20451 29122 ft 501 kts 29°
2026-05-07 01:01 -23.83696 -44.18608 28441 ft 493 kts 29°
2026-05-07 01:01 -23.80719 -44.16793 27770 ft 485 kts 29°
2026-05-07 01:01 -23.77792 -44.15008 27115 ft 479 kts 29°
2026-05-07 01:01 -23.74932 -44.13266 26465 ft 472 kts 29°
2026-05-07 01:02 -23.72081 -44.11529 25827 ft 466 kts 30°
2026-05-07 01:02 -23.69259 -44.09811 25167 ft 460 kts 30°
2026-05-07 01:02 -23.66471 -44.08115 24520 ft 455 kts 30°
2026-05-07 01:02 -23.63716 -44.06438 23874 ft 451 kts 30°
2026-05-07 01:03 -23.61013 -44.04796 23148 ft 446 kts 30°
2026-05-07 01:03 -23.58315 -44.03164 22468 ft 440 kts 28°
2026-05-07 01:03 -23.55468 -44.02035 21919 ft 432 kts 10°
2026-05-07 01:03 -23.52517 -44.01730 21624 ft 420 kts
2026-05-07 01:04 -23.49622 -44.01608 21270 ft 413 kts
2026-05-07 01:04 -23.46801 -44.01489 20897 ft 409 kts
2026-05-07 01:04 -23.43957 -44.01337 20490 ft 410 kts
2026-05-07 01:04 -23.41090 -44.01162 20081 ft 413 kts
2026-05-07 01:05 -23.38220 -44.00977 19669 ft 412 kts
2026-05-07 01:05 -23.35357 -44.00792 19253 ft 410 kts
2026-05-07 01:05 -23.32502 -44.00608 18830 ft 409 kts
2026-05-07 01:05 -23.29702 -44.00429 18423 ft 406 kts
2026-05-07 01:06 -23.26895 -44.00251 17960 ft 401 kts
2026-05-07 01:06 -23.24123 -44.00076 17543 ft 396 kts
2026-05-07 01:06 -23.21386 -43.99904 17142 ft 390 kts
2026-05-07 01:06 -23.18693 -43.99734 16751 ft 384 kts
2026-05-07 01:07 -23.16071 -43.99569 16375 ft 380 kts
2026-05-07 01:07 -23.13445 -43.99404 16000 ft 375 kts
2026-05-07 01:07 -23.10844 -43.99241 15629 ft 371 kts
2026-05-07 01:07 -23.08270 -43.99079 15259 ft 368 kts
2026-05-07 01:08 -23.05750 -43.98920 14892 ft 365 kts
2026-05-07 01:08 -23.03218 -43.98761 14530 ft 362 kts
2026-05-07 01:08 -23.00708 -43.98604 14161 ft 360 kts
2026-05-07 01:08 -22.98213 -43.98447 13773 ft 358 kts
2026-05-07 01:09 -22.95737 -43.98212 13376 ft 355 kts 13°
2026-05-07 01:09 -22.93491 -43.97178 13010 ft 350 kts 35°
2026-05-07 01:09 -22.91745 -43.95409 12672 ft 346 kts 53°
2026-05-07 01:09 -22.90541 -43.93166 12341 ft 343 kts 63°
2026-05-07 01:10 -22.89505 -43.90833 11956 ft 342 kts 65°
2026-05-07 01:10 -22.88505 -43.88503 11595 ft 340 kts 65°
2026-05-07 01:10 -22.87508 -43.86193 11263 ft 334 kts 64°
2026-05-07 01:10 -22.86522 -43.83936 10927 ft 326 kts 64°
2026-05-07 01:11 -22.85553 -43.81741 10593 ft 318 kts 64°
2026-05-07 01:11 -22.84615 -43.79632 10296 ft 311 kts 64°
2026-05-07 01:11 -22.83686 -43.77550 10065 ft 301 kts 64°
2026-05-07 01:11 -22.82797 -43.75562 10067 ft 284 kts 64°
2026-05-07 01:12 -22.81938 -43.73641 9527 ft 287 kts 64°
2026-05-07 01:12 -22.81083 -43.71699 9125 ft 285 kts 67°
2026-05-07 01:12 -22.80514 -43.69678 8776 ft 282 kts 76°
2026-05-07 01:12 -22.80075 -43.67617 8435 ft 279 kts 76°
2026-05-07 01:13 -22.79633 -43.65578 8102 ft 276 kts 76°
2026-05-07 01:13 -22.79180 -43.63566 7775 ft 273 kts 76°
2026-05-07 01:13 -22.78724 -43.61572 7372 ft 273 kts 75°
2026-05-07 01:13 -22.78262 -43.59576 7023 ft 272 kts 75°
2026-05-07 01:14 -22.77804 -43.57613 6694 ft 267 kts 76°
2026-05-07 01:14 -22.77342 -43.55692 6339 ft 260 kts 72°
2026-05-07 01:14 -22.76690 -43.53906 5955 ft 256 kts 66°
2026-05-07 01:14 -22.75969 -43.52160 5591 ft 252 kts 65°
2026-05-07 01:15 -22.75263 -43.50432 5230 ft 251 kts 66°
2026-05-07 01:15 -22.74564 -43.48694 4873 ft 252 kts 66°
2026-05-07 01:15 -22.73864 -43.46947 4498 ft 253 kts 66°
2026-05-07 01:15 -22.73167 -43.45196 4154 ft 253 kts 66°
2026-05-07 01:16 -22.72473 -43.43449 3825 ft 249 kts 66°
2026-05-07 01:16 -22.71983 -43.41678 3440 ft 244 kts 88°
2026-05-07 01:16 -22.72389 -43.39938 3088 ft 239 kts 117°
2026-05-07 01:16 -22.73248 -43.38421 2758 ft 234 kts 124°
2026-05-07 01:17 -22.74187 -43.37018 2445 ft 226 kts 125°
2026-05-07 01:17 -22.75089 -43.35669 2146 ft 215 kts 124°
2026-05-07 01:17 -22.75918 -43.34418 1856 ft 199 kts 124°
2026-05-07 01:17 -22.76690 -43.33251 1623 ft 182 kts 124°
2026-05-07 01:18 -22.77400 -43.32177 1388 ft 167 kts 124°
2026-05-07 01:18 -22.78035 -43.31219 1162 ft 149 kts 124°
2026-05-07 01:18 -22.78614 -43.30343 984 ft 138 kts 124°
2026-05-07 01:18 -22.79171 -43.29501 816 ft 138 kts 124°
2026-05-07 01:19 -22.79731 -43.28655 640 ft 138 kts 125°
2026-05-07 01:19 -22.80283 -43.27821 413 ft 139 kts 125°
2026-05-07 01:19 -22.80845 -43.26952 215 ft 141 kts 126°
2026-05-07 01:19 -22.81412 -43.26113 51 ft 137 kts 124°
2026-05-07 01:20 -22.81933 -43.25325 25 ft 112 kts 126°
2026-05-07 01:20 -22.82287 -43.24794 19 ft 47 kts 125°
2026-05-07 01:20 -22.82348 -43.24632 19 ft 16 kts 104°
2026-05-07 01:20 -22.82364 -43.24515 18 ft 11 kts 97°
2026-05-07 01:21 -22.82352 -43.24465 19 ft 7 kts 35°
2026-05-07 01:21 -22.82310 -43.24485 18 ft 8 kts 308°
2026-05-07 01:21 -22.82266 -43.24548 19 ft 12 kts 306°
2026-05-07 01:21 -22.82219 -43.24621 20 ft 12 kts 306°
2026-05-07 01:22 -22.82171 -43.24691 19 ft 11 kts 306°
2026-05-07 01:22 -22.82126 -43.24762 20 ft 11 kts 305°
2026-05-07 01:22 -22.82078 -43.24834 22 ft 12 kts 306°
2026-05-07 01:22 -22.82028 -43.24910 23 ft 12 kts 305°
2026-05-07 01:23 -22.81980 -43.24982 22 ft 12 kts 306°
2026-05-07 01:23 -22.81933 -43.25051 23 ft 11 kts 307°
2026-05-07 01:23 -22.81888 -43.25120 25 ft 11 kts 304°
2026-05-07 01:23 -22.81841 -43.25193 26 ft 14 kts 306°
2026-05-07 01:24 -22.81760 -43.25248 21 ft 15 kts 15°
2026-05-07 01:24 -22.81677 -43.25187 22 ft 14 kts 36°
2026-05-07 01:24 -22.81599 -43.25127 20 ft 13 kts 35°
2026-05-07 01:24 -22.81525 -43.25069 20 ft 13 kts 36°
2026-05-07 01:25 -22.81441 -43.25070 21 ft 13 kts 334°
2026-05-07 01:25 -22.81359 -43.25083 21 ft 9 kts 359°
2026-05-07 01:25 -22.81299 -43.25084 21 ft 6 kts 358°
2026-05-07 01:25 -22.81279 -43.25084 22 ft 0 kts
2026-05-07 01:26 -22.81272 -43.25084 21 ft 1 kts 359°
2026-05-07 01:26 -22.81266 -43.25084 21 ft 0 kts 359°